Regional Weather Roundup
Issued by NWS Jackson, KY

Home | Current Version | Previous Version | Text Only | Print | Product List | Glossary On
Versions: 1 2 3 4 5 6 7 8 9 10 11 12 13 14 15 16 17 18 19 20 21 22 23 24 25 26 27 28 29 30 31 32 33 34 35 36 37 38 39 40 41 42 43 44 45 46 47 48 49 50
000
ASUS43 KJKL 262110
RWRJKL

EAST KENTUCKY HOURLY WEATHER ROUNDUP
NATIONAL WEATHER SERVICE JACKSON KY
500 PM EDT MON SEP 26 2016

NOTE: "FAIR" INDICATES FEW OR NO CLOUDS BELOW 12,000 FEET WITH
NO SIGNIFICANT WEATHER AND/OR OBSTRUCTIONS TO VISIBILITY.

* THESE REPORTS ARE NOT UNDER NWS QUALITY CONTROL AND MAY NOT
  REPORT WEATHER SUCH AS PRECIPITATION AND FOG.

KYZ079-080-083-085-087-088-110-112-115-119-120-262200
...EASTERN KENTUCKY...

CITY           SKY/WX    TMP DP  RH WIND       PRES   REMARKS
JACKSON        CLOUDY    74  64  71 CALM      30.02F
LONDON         CLOUDY    74  62  66 NW7       30.03F
SOMERSET*      PTSUNNY   70  61  73 W7        30.05S
MONTICELLO*    CLOUDY    72  64  76 NW7       30.06F
WILLIAMSBURG*  CLOUDY    73  64  73 NW6       30.04S
MIDDLESBORO*   PTSUNNY   79  67  66 N5        30.02F
HARLAN APT*    CLOUDY    73  68  83 SW3       30.03F
PIKE CO APT*   PTSUNNY   77  66  67 W3        30.01S
BIG SANDY APT* MOCLDY    77  65  65 W8        30.01S
MOREHEAD APT*  CLOUDY    64  59  82 NW9       30.05S
ASHLAND*       CLOUDY    72  63  73 NW10G16   29.99R
$$

KYZ035-036-041-042-044-050-067-078-099-262200
...CENTRAL KENTUCKY...

CITY           SKY/WX    TMP DP  RH WIND       PRES   REMARKS
MT STERLING*   CLOUDY   N/A N/A N/A NW6       30.05F
FLEMING/MASON* PTSUNNY   64  57  77 W9        30.04S
DANVILLE*      CLOUDY    64  59  82 NW6       30.07S
LEXINGTON      PTSUNNY   67  56  67 W6        30.05F
FRANKFORT      CLOUDY    67  53  61 NW6       30.04F
LOUISVILLE     PTSUNNY   68  51  54 W10       30.06R
LEBANON*         N/A     66  57  72 W6        30.07S
GLASGOW*       PTSUNNY   66  59  79 CALM      30.08F
BOWLING GREEN  CLOUDY    69  57  65 NW5       30.08F
$$

KYZ091>093-OHZ055-061-077-WVZ005-015-034-035-042-262200
...SOUTHERN OHIO/WEST VIRGINIA...

CITY           SKY/WX    TMP DP  RH WIND       PRES   REMARKS
COVINGTON      CLOUDY    66  51  58 W9        30.03S
COLUMBUS       CLOUDY    67  57  70 NW10      29.97F
DAYTON         PTSUNNY   68  47  46 W13       30.01F
WILMINGTON     MOSUNNY   66  50  56 W12G20    30.01S
HUNTINGTON     CLOUDY    71  59  65 W7        29.99R
CHARLESTON     PTSUNNY   78  62  57 W7        29.97F
PINEVILLE*     LGT RAIN  71  65  83 MISG      30.06S
BECKLEY        LGT RAIN  68  64  87 NW7       30.04F
BLUEFIELD      TSTM      70  62  76 N3        30.07R
LOGAN CO APT*  MOCLDY    72  70  94 CALM      30.00S
$$

VAZ002-007-008-TNZ017-027-036-066-071-262200
...SOUTHWEST VIRGINIA/EAST TENNESSEE...

CITY           SKY/WX    TMP DP  RH WIND       PRES   REMARKS
WISE*          CLOUDY    70  66  88 W6        30.09S
JONESVILLE*      N/A     75  68  78 CALM      30.05S
ABINGDON*      LGT RAIN  69  64  83 CALM      30.04R
BRISTOL        PTSUNNY   76  62  62 W18G24    30.03R THUNDER
MORRISTOWN*      N/A     68  66  94 SW7       30.03F
SEVIERVILLE*   PTCLDY    72  64  78 VRB3      30.04F
KNOXVILLE      CLOUDY    72  67  84 SW9       30.02F
OAK RIDGE      PTSUNNY   78  70  76 VRB3      30.03F
CROSSVILLE     MOSUNNY   77  63  61 W10       30.07F
NASHVILLE      CLOUDY    65  62  90 NW5       30.08S
$$

...KEY TO REMARKS...
VSB - VISIBILITY IN MILES
WCI - WIND CHILL INDEX
HX  - HEAT INDEX

$$



USA.gov is the U.S. government's official web portal to all federal, state and local government web resources and services.